,,PA_Meas_PMT16A,,PR_Meas_QMR101_102,,RH_Meas_QMH101,,SR_Meas_QMS101,,TA_Meas_QMH101,,GenWind,,GenWind,
time,status,PA,status,PR,status,RH,status,SR,status,TA,status,DirAvg,status,SpdAvg,
2012-08-26, 00:00:04,VALID,918.026,VALID,0,VALID,94.7972,VALID,0,VALID,20.8356,VALID,19,VALID,0,
2012-08-26, 00:01:04,VALID,918.034,VALID,0,VALID,94.8277,VALID,0,VALID,20.8762,VALID,19,VALID,0,
2012-08-26, 00:02:04,VALID,918.028,VALID,0,VALID,94.8353,VALID,0,VALID,20.8551,VALID,19,VALID,0,
2012-08-26, 00:03:04,VALID,918.011,VALID,0,VALID,94.8353,VALID,0,VALID,20.8551,VALID,19,VALID,0,
2012-08-26, 00:04:04,VALID,918.014,VALID,0,VALID,94.8048,VALID,0,VALID,20.8746,VALID,19,VALID,0,
2012-08-26, 00:05:04,VALID,918.039,VALID,0,VALID,94.7819,VALID,0,VALID,20.8746,VALID,19,VALID,0,
2012-08-26, 00:06:04,VALID,918.034,VALID,0,VALID,94.7286,VALID,0,VALID,20.8746,VALID,19,VALID,0,
2012-08-26, 00:07:04,VALID,918.041,VALID,0,VALID,94.6981,VALID,0,VALID,20.8746,VALID,19,VALID,0,
2012-08-26, 00:08:04,VALID,918.03,VALID,0,VALID,94.66,VALID,0,VALID,20.8551,VALID,19,VALID,0,
2012-08-26, 00:09:04,VALID,918.045,VALID,0,VALID,94.6981,VALID,0,VALID,20.8551,VALID,19,VALID,0,
2012-08-26, 00:10:04,VALID,918.024,VALID,0,VALID,94.6981,VALID,0,VALID,20.8551,VALID,19,VALID,0,
2012-08-26, 00:11:04,VALID,918.016,VALID,0,VALID,94.599,VALID,0,VALID,20.8356,VALID,19,VALID,0,
2012-08-26, 00:12:04,VALID,918.033,VALID,0,VALID,94.4999,VALID,0,VALID,20.7966,VALID,19,VALID,0,
2012-08-26, 00:13:04,VALID,918.02,VALID,0,VALID,94.66,VALID,0,VALID,20.7771,VALID,19,VALID,0,
2012-08-26, 00:14:04,VALID,918.05,VALID,0,VALID,94.6676,VALID,0,VALID,20.7787,VALID,19,VALID,0,
2012-08-26, 00:15:04,VALID,918.04,VALID,0,VALID,94.7209,VALID,0,VALID,20.7185,VALID,19,VALID,0,
2012-08-26, 00:16:04,VALID,918.053,VALID,0,VALID,94.6828,VALID,0,VALID,20.66,VALID,19,VALID,0,
2012-08-26, 00:17:04,VALID,918.056,VALID,0,VALID,94.8582,VALID,0,VALID,20.6405,VALID,19,VALID,0,
2012-08-26, 00:18:04,VALID,918.045,VALID,0,VALID,94.9878,VALID,0,VALID,20.621,VALID,19,VALID,0,
2012-08-26, 00:19:04,VALID,918.032,VALID,0,VALID,95.0792,VALID,0.107441,VALID,20.582,VALID,19,VALID,0,
2012-08-26, 00:20:04,VALID,918.042,VALID,0,VALID,95.2393,VALID,0,VALID,20.5625,VALID,19,VALID,0,
2012-08-26, 00:21:04,VALID,918.021,VALID,0,VALID,95.2851,VALID,0.107441,VALID,20.5235,VALID,19,VALID,0,
2012-08-26, 00:22:04,VALID,918.004,VALID,0,VALID,95.2927,VALID,0,VALID,20.4845,VALID,19,VALID,0,
2012-08-26, 00:23:04,VALID,918.011,VALID,0,VALID,95.3156,VALID,0,VALID,20.4454,VALID,19,VALID,0,
2012-08-26, 00:24:04,VALID,917.993,VALID,0,VALID,95.3689,VALID,0,VALID,20.4064,VALID,19,VALID,0,
2012-08-26, 00:25:04,VALID,917.977,VALID,0,VALID,95.4299,VALID,0,VALID,20.3674,VALID,19,VALID,0,
2012-08-26, 00:26:04,VALID,917.971,VALID,0,VALID,95.6129,VALID,0,VALID,20.3674,VALID,19,VALID,0,
2012-08-26, 00:27:04,VALID,917.987,VALID,0,VALID,95.7501,VALID,0,VALID,20.3869,VALID,19,VALID,0,
2012-08-26, 00:28:04,VALID,917.956,VALID,0,VALID,95.8492,VALID,0,VALID,20.3659,VALID,19,VALID,0,
2012-08-26, 00:29:04,VALID,917.964,VALID,0,VALID,95.834,VALID,0,VALID,20.3674,VALID,19,VALID,0,
2012-08-26, 00:30:04,VALID,917.959,VALID,0,VALID,95.8568,VALID,0,VALID,20.3284,VALID,19,VALID,0,
2012-08-26, 00:31:04,VALID,917.924,VALID,0,VALID,95.8797,VALID,0,VALID,20.3284,VALID,19,VALID,0,
2012-08-26, 00:32:04,VALID,917.94,VALID,0,VALID,96.0474,VALID,0,VALID,20.3284,VALID,19,VALID,0,
2012-08-26, 00:33:04,VALID,917.916,VALID,0,VALID,96.1084,VALID,0,VALID,20.3479,VALID,19,VALID,0,
2012-08-26, 00:34:04,VALID,917.885,VALID,0,VALID,96.0779,VALID,0,VALID,20.3284,VALID,19,VALID,0,
2012-08-26, 00:35:04,VALID,917.876,VALID,0,VALID,96.1389,VALID,0.107441,VALID,20.3284,VALID,19,VALID,0,
2012-08-26, 00:36:04,VALID,917.872,VALID,0,VALID,96.1465,VALID,0,VALID,20.3495,VALID,19,VALID,0,
2012-08-26, 00:37:04,VALID,917.854,VALID,0,VALID,96.0779,VALID,0,VALID,20.2894,VALID,19,VALID,0,
2012-08-26, 00:38:04,VALID,917.867,VALID,0,VALID,96.0703,VALID,0,VALID,20.2894,VALID,19,VALID,0,
2012-08-26, 00:39:04,VALID,917.88,VALID,0,VALID,96.0932,VALID,0,VALID,20.2894,VALID,19,VALID,0,
2012-08-26, 00:40:04,VALID,917.868,VALID,0,VALID,96.1084,VALID,0,VALID,20.2699,VALID,19,VALID,0,
2012-08-26, 00:41:04,VALID,917.861,VALID,0,VALID,96.1389,VALID,0,VALID,20.2894,VALID,19,VALID,0,
2012-08-26, 00:42:04,VALID,917.873,VALID,0,VALID,96.1084,VALID,0,VALID,20.3089,VALID,19,VALID,0,
2012-08-26, 00:43:04,VALID,917.876,VALID,0,VALID,96.1389,VALID,0,VALID,20.3495,VALID,19,VALID,0,
2012-08-26, 00:44:04,VALID,917.857,VALID,0,VALID,96.1313,VALID,0,VALID,20.3674,VALID,19,VALID,0,
2012-08-26, 00:45:04,VALID,917.827,VALID,0,VALID,96.0779,VALID,0,VALID,20.3869,VALID,19,VALID,0,
2012-08-26, 00:46:04,VALID,917.823,VALID,0,VALID,95.9864,VALID,0,VALID,20.3674,VALID,19,VALID,0,
2012-08-26, 00:47:04,VALID,917.789,VALID,0,VALID,95.895,VALID,0,VALID,20.3674,VALID,19,VALID,0,
2012-08-26, 00:48:04,VALID,917.794,VALID,0,VALID,95.8568,VALID,0,VALID,20.3674,VALID,19,VALID,0,
2012-08-26, 00:49:04,VALID,917.77,VALID,0,VALID,95.8263,VALID,0,VALID,20.3869,VALID,19,VALID,0,
2012-08-26, 00:50:04,VALID,917.78,VALID,0,VALID,95.7577,VALID,0,VALID,20.3869,VALID,19,VALID,0,
2012-08-26, 00:51:04,VALID,917.753,VALID,0,VALID,95.7196,VALID,0,VALID,20.408,VALID,19,VALID,0,
2012-08-26, 00:52:04,VALID,917.731,VALID,0,VALID,95.6053,VALID,0,VALID,20.3885,VALID,19,VALID,0,
2012-08-26, 00:53:04,VALID,917.703,VALID,0,VALID,95.5595,VALID,0,VALID,20.3674,VALID,19,VALID,0,
2012-08-26, 00:54:04,VALID,917.677,VALID,0,VALID,95.5062,VALID,0,VALID,20.3674,VALID,19,VALID,0,
2012-08-26, 00:55:04,VALID,917.683,VALID,0,VALID,95.3461,VALID,0,VALID,20.3284,VALID,19,VALID,0,
2012-08-26, 00:56:04,VALID,917.662,VALID,0,VALID,95.1631,VALID,0,VALID,20.2894,VALID,19,VALID,0,
2012-08-26, 00:57:04,VALID,917.635,VALID,0,VALID,95.3461,VALID,0,VALID,20.3284,VALID,19,VALID,0,
2012-08-26, 00:58:04,VALID,917.626,VALID,0,VALID,95.4223,VALID,0,VALID,20.3479,VALID,19,VALID,0,
2012-08-26, 00:59:04,VALID,917.619,VALID,0,VALID,95.5062,VALID,0,VALID,20.3674,VALID,19,VALID,0,
2012-08-26, 01:00:04,VALID,917.594,VALID,0,VALID,95.529,VALID,0,VALID,20.3674,VALID,19,VALID,0,
2012-08-26, 01:01:04,VALID,917.608,VALID,0,VALID,95.4833,VALID,0,VALID,20.3479,VALID,19,VALID,0,
2012-08-26, 01:02:04,VALID,917.566,VALID,0,VALID,95.4833,VALID,0,VALID,20.3284,VALID,19,VALID,0,
2012-08-26, 01:03:04,VALID,917.561,VALID,0,VALID,95.5138,VALID,0,VALID,20.3284,VALID,19,VALID,0,
2012-08-26, 01:04:04,VALID,917.549,VALID,0,VALID,95.5214,VALID,0,VALID,20.3284,VALID,19,VALID,0,
2012-08-26, 01:05:04,VALID,917.535,VALID,0,VALID,95.4604,VALID,0,VALID,20.3105,VALID,19,VALID,0,
2012-08-26, 01:06:04,VALID,917.525,VALID,0,VALID,95.5138,VALID,0,VALID,20.3089,VALID,19,VALID,0,
2012-08-26, 01:07:04,VALID,917.525,VALID,0,VALID,95.5519,VALID,0,VALID,20.3479,VALID,19,VALID,0,
2012-08-26, 01:08:04,VALID,917.499,VALID,0,VALID,95.5824,VALID,0,VALID,20.3479,VALID,19,VALID,0,
2012-08-26, 01:09:04,VALID,917.511,VALID,0,VALID,95.5519,VALID,0,VALID,20.3674,VALID,19,VALID,0,
2012-08-26, 01:10:04,VALID,917.468,VALID,0,VALID,95.5519,VALID,0,VALID,20.3674,VALID,19,VALID,0,
2012-08-26, 01:11:04,VALID,917.499,VALID,0,VALID,95.5138,VALID,0,VALID,20.3674,VALID,19,VALID,0,
2012-08-26, 01:12:04,VALID,917.455,VALID,0,VALID,95.5138,VALID,0,VALID,20.3674,VALID,19,VALID,0,
2012-08-26, 01:13:04,VALID,917.435,VALID,0,VALID,95.4985,VALID,0,VALID,20.3674,VALID,19,VALID,0,
2012-08-26, 01:14:04,VALID,917.419,VALID,0,VALID,95.4299,VALID,0,VALID,20.3674,VALID,19,VALID,0,
2012-08-26, 01:15:04,VALID,917.366,VALID,0,VALID,95.3918,VALID,0,VALID,20.3674,VALID,19,VALID,0,
2012-08-26, 01:16:04,VALID,917.361,VALID,0,VALID,95.3842,VALID,0,VALID,20.3479,VALID,19,VALID,0,
2012-08-26, 01:17:04,VALID,917.343,VALID,0,VALID,95.3689,VALID,0,VALID,20.3479,VALID,19,VALID,0,
2012-08-26, 01:18:04,VALID,917.288,VALID,0,VALID,95.3384,VALID,0,VALID,20.3479,VALID,19,VALID,0,
2012-08-26, 01:19:04,VALID,917.292,VALID,0,VALID,95.2851,VALID,0,VALID,20.3284,VALID,19,VALID,0,
2012-08-26, 01:20:04,VALID,917.278,VALID,0,VALID,95.247,VALID,0,VALID,20.3284,VALID,19,VALID,0,
2012-08-26, 01:21:04,VALID,917.323,VALID,0,VALID,95.2012,VALID,0,VALID,20.3284,VALID,19,VALID,0,
2012-08-26, 01:22:04,VALID,917.28,VALID,0,VALID,95.1555,VALID,0,VALID,20.3284,VALID,19,VALID,0,
2012-08-26, 01:23:04,VALID,917.284,VALID,0,VALID,95.1174,VALID,0,VALID,20.3284,VALID,19,VALID,0,
2012-08-26, 01:24:04,VALID,917.278,VALID,0,VALID,95.1326,VALID,0,VALID,20.3284,VALID,19,VALID,0,
2012-08-26, 01:25:04,VALID,917.261,VALID,0,VALID,95.125,VALID,0,VALID,20.33,VALID,19,VALID,0,
2012-08-26, 01:26:04,VALID,917.24,VALID,0,VALID,95.1174,VALID,0,VALID,20.2894,VALID,19,VALID,0,
2012-08-26, 01:27:04,VALID,917.246,VALID,0,VALID,95.0792,VALID,0.107441,VALID,20.2699,VALID,19,VALID,0,
2012-08-26, 01:28:04,VALID,917.251,VALID,0,VALID,95.2088,VALID,0,VALID,20.2699,VALID,19,VALID,0,
2012-08-26, 01:29:04,VALID,917.24,VALID,0,VALID,95.2393,VALID,0,VALID,20.2504,VALID,19,VALID,0,
2012-08-26, 01:30:04,VALID,917.197,VALID,0,VALID,95.2698,VALID,0,VALID,20.2504,VALID,19,VALID,0,
2012-08-26, 01:31:04,VALID,917.197,VALID,0,VALID,95.2241,VALID,0,VALID,20.2699,VALID,19,VALID,0,
2012-08-26, 01:32:04,VALID,917.198,VALID,0,VALID,95.2241,VALID,0,VALID,20.2894,VALID,19,VALID,0,
2012-08-26, 01:33:04,VALID,917.183,VALID,0,VALID,95.1402,VALID,0,VALID,20.2699,VALID,19,VALID,0,
2012-08-26, 01:34:04,VALID,917.149,VALID,0,VALID,95.0945,VALID,0,VALID,20.2699,VALID,19,VALID,0,
2012-08-26, 01:35:04,VALID,917.167,VALID,0,VALID,95.0792,VALID,0,VALID,20.2699,VALID,19,VALID,0,
2012-08-26, 01:36:04,VALID,917.135,VALID,0,VALID,95.2012,VALID,0,VALID,20.2894,VALID,19,VALID,0,
2012-08-26, 01:37:04,VALID,917.12,VALID,0,VALID,95.1174,VALID,0,VALID,20.2894,VALID,19,VALID,0,
2012-08-26, 01:38:04,VALID,917.112,VALID,0,VALID,95.0488,VALID,0,VALID,20.2504,VALID,19,VALID,0,
2012-08-26, 01:39:04,VALID,917.111,VALID,0,VALID,95.1174,VALID,0,VALID,20.2309,VALID,19,VALID,0,
2012-08-26, 01:40:04,VALID,917.127,VALID,0,VALID,95.1402,VALID,0,VALID,20.2309,VALID,19,VALID,0,
2012-08-26, 01:41:04,VALID,917.114,VALID,0,VALID,95.3003,VALID,0,VALID,20.2114,VALID,19,VALID,0,
2012-08-26, 01:42:04,VALID,917.076,VALID,0,VALID,95.3918,VALID,0,VALID,20.2114,VALID,19,VALID,0,
2012-08-26, 01:43:04,VALID,917.086,VALID,0,VALID,95.5824,VALID,0,VALID,20.2504,VALID,19,VALID,0,
2012-08-26, 01:44:04,VALID,917.045,VALID,0,VALID,95.6434,VALID,0,VALID,20.2504,VALID,19,VALID,0,
2012-08-26, 01:45:04,VALID,917.046,VALID,0,VALID,95.7196,VALID,0,VALID,20.2894,VALID,19,VALID,0,
2012-08-26, 01:46:04,VALID,917.055,VALID,0,VALID,95.773,VALID,0,VALID,20.3089,VALID,19,VALID,0,
2012-08-26, 01:47:04,VALID,917.07,VALID,0,VALID,95.8035,VALID,0,VALID,20.3479,VALID,19,VALID,0,
2012-08-26, 01:48:04,VALID,917.049,VALID,0,VALID,95.834,VALID,0,VALID,20.3885,VALID,19,VALID,0,
2012-08-26, 01:49:04,VALID,917.051,VALID,0,VALID,95.7501,VALID,0,VALID,20.3869,VALID,19,VALID,0,
2012-08-26, 01:50:04,VALID,917.066,VALID,0,VALID,95.6891,VALID,0,VALID,20.3869,VALID,19,VALID,0,
2012-08-26, 01:51:04,VALID,917.075,VALID,0,VALID,95.6815,VALID,0,VALID,20.3869,VALID,19,VALID,0,
2012-08-26, 01:52:04,VALID,917.082,VALID,0,VALID,95.6434,VALID,0,VALID,20.4259,VALID,19,VALID,0,
2012-08-26, 01:53:04,VALID,917.037,VALID,0,VALID,95.59,VALID,0,VALID,20.4064,VALID,19,VALID,0,
2012-08-26, 01:54:04,VALID,917.042,VALID,0,VALID,95.5671,VALID,0.107441,VALID,20.4275,VALID,19,VALID,0,
2012-08-26, 01:55:04,VALID,917.031,VALID,0,VALID,95.5443,VALID,0,VALID,20.4064,VALID,19,VALID,0,
2012-08-26, 01:56:04,VALID,917.034,VALID,0,VALID,95.5062,VALID,0,VALID,20.4259,VALID,19,VALID,0,
2012-08-26, 01:57:04,VALID,917.02,VALID,0,VALID,95.4909,VALID,0,VALID,20.4259,VALID,19,VALID,0,
2012-08-26, 01:58:04,VALID,917.016,VALID,0,VALID,95.468,VALID,0,VALID,20.4259,VALID,19,VALID,0,
2012-08-26, 01:59:04,VALID,917.006,VALID,0,VALID,95.4528,VALID,0,VALID,20.4259,VALID,19,VALID,0,
2012-08-26, 02:00:04,VALID,916.989,VALID,0,VALID,95.4528,VALID,0.107441,VALID,20.4064,VALID,19,VALID,0,
2012-08-26, 02:01:04,VALID,916.991,VALID,0,VALID,95.468,VALID,0.107441,VALID,20.4064,VALID,19,VALID,0,
2012-08-26, 02:02:04,VALID,916.974,VALID,0,VALID,95.4833,VALID,0.107441,VALID,20.4064,VALID,19,VALID,0,
2012-08-26, 02:03:04,VALID,916.978,VALID,0,VALID,95.4985,VALID,0.107441,VALID,20.3869,VALID,19,VALID,0,
2012-08-26, 02:04:04,VALID,916.989,VALID,0,VALID,95.5062,VALID,0,VALID,20.3885,VALID,19,VALID,0,
2012-08-26, 02:05:04,VALID,916.976,VALID,0,VALID,95.529,VALID,0,VALID,20.3885,VALID,19,VALID,0,
2012-08-26, 02:06:04,VALID,916.971,VALID,0,VALID,95.5671,VALID,0,VALID,20.3479,VALID,19,VALID,0,
2012-08-26, 02:07:04,VALID,916.977,VALID,0,VALID,95.5976,VALID,0,VALID,20.3674,VALID,19,VALID,0,
2012-08-26, 02:08:04,VALID,916.942,VALID,0,VALID,95.6357,VALID,0,VALID,20.3674,VALID,19,VALID,0,
2012-08-26, 02:09:04,VALID,916.933,VALID,0,VALID,95.651,VALID,0,VALID,20.3284,VALID,19,VALID,0,
2012-08-26, 02:10:04,VALID,916.928,VALID,0,VALID,95.7349,VALID,0,VALID,20.3495,VALID,20,VALID,0,
2012-08-26, 02:11:04,VALID,916.944,VALID,0,VALID,95.7958,VALID,0.107441,VALID,20.3284,VALID,20,VALID,0,
2012-08-26, 02:12:04,VALID,916.933,VALID,0,VALID,95.8111,VALID,0,VALID,20.3495,VALID,20,VALID,0,
2012-08-26, 02:13:04,VALID,916.93,VALID,0,VALID,95.8416,VALID,0,VALID,20.3089,VALID,20,VALID,0,
2012-08-26, 02:14:04,VALID,916.92,VALID,0,VALID,95.8492,VALID,0,VALID,20.2894,VALID,20,VALID,0,
2012-08-26, 02:15:04,VALID,916.909,VALID,0,VALID,95.773,VALID,0,VALID,20.2699,VALID,20,VALID,0,
2012-08-26, 02:16:04,VALID,916.951,VALID,0,VALID,95.8187,VALID,0,VALID,20.2293,VALID,20,VALID,0,
2012-08-26, 02:17:04,VALID,916.932,VALID,0,VALID,95.8416,VALID,0,VALID,20.1919,VALID,122,VALID,0,
2012-08-26, 02:18:04,VALID,916.934,VALID,0,VALID,95.8568,VALID,0,VALID,20.1724,VALID,122,VALID,0,
2012-08-26, 02:19:04,VALID,916.948,VALID,0,VALID,95.895,VALID,0,VALID,20.1739,VALID,122,VALID,0,
2012-08-26, 02:20:04,VALID,916.946,VALID,0,VALID,95.9788,VALID,0,VALID,20.1334,VALID,122,VALID,0,
2012-08-26, 02:21:04,VALID,916.933,VALID,0,VALID,96.0398,VALID,0,VALID,20.1334,VALID,122,VALID,0,
2012-08-26, 02:22:04,VALID,916.942,VALID,0,VALID,96.0932,VALID,0,VALID,20.1139,VALID,122,VALID,0,
2012-08-26, 02:23:04,VALID,916.94,VALID,0,VALID,96.2075,VALID,0,VALID,20.1334,VALID,122,VALID,0,
2012-08-26, 02:24:04,VALID,916.932,VALID,0,VALID,96.2837,VALID,0,VALID,20.1139,VALID,122,VALID,0,
2012-08-26, 02:25:04,VALID,916.902,VALID,0,VALID,96.3066,VALID,0,VALID,20.1154,VALID,122,VALID,0,
2012-08-26, 02:26:04,VALID,916.891,VALID,0,VALID,96.36,VALID,0.107441,VALID,20.0944,VALID,122,VALID,0,
2012-08-26, 02:27:04,VALID,916.921,VALID,0,VALID,96.4515,VALID,0,VALID,20.0959,VALID,122,VALID,0,
2012-08-26, 02:28:04,VALID,916.923,VALID,0,VALID,96.4591,VALID,0,VALID,20.0749,VALID,122,VALID,0,
2012-08-26, 02:29:04,VALID,916.943,VALID,0,VALID,96.5277,VALID,0,VALID,20.0553,VALID,122,VALID,0,
2012-08-26, 02:30:04,VALID,916.94,VALID,0,VALID,96.4819,VALID,0,VALID,20.0358,VALID,122,VALID,0,
2012-08-26, 02:31:04,VALID,916.921,VALID,0,VALID,96.5811,VALID,0,VALID,20.0569,VALID,122,VALID,0,
2012-08-26, 02:32:04,VALID,916.903,VALID,0,VALID,96.6573,VALID,0,VALID,20.0944,VALID,122,VALID,0,
2012-08-26, 02:33:04,VALID,916.91,VALID,0,VALID,96.7183,VALID,0,VALID,20.1349,VALID,122,VALID,0,
2012-08-26, 02:34:04,VALID,916.902,VALID,0,VALID,96.7183,VALID,0,VALID,20.1739,VALID,122,VALID,0,
2012-08-26, 02:35:04,VALID,916.892,VALID,0,VALID,96.7564,VALID,0,VALID,20.1919,VALID,122,VALID,0,
2012-08-26, 02:36:04,VALID,916.904,VALID,0,VALID,96.7411,VALID,0,VALID,20.2129,VALID,122,VALID,0,
2012-08-26, 02:37:04,VALID,916.894,VALID,0,VALID,96.7335,VALID,0.107441,VALID,20.2114,VALID,122,VALID,0,
2012-08-26, 02:38:04,VALID,916.944,VALID,0,VALID,96.7564,VALID,0,VALID,20.2114,VALID,122,VALID,0,
2012-08-26, 02:39:04,VALID,916.912,VALID,0,VALID,96.7488,VALID,0,VALID,20.2129,VALID,115,VALID,0,
2012-08-26, 02:40:04,VALID,916.925,VALID,0,VALID,96.7564,VALID,0,VALID,20.2114,VALID,118,VALID,0,
2012-08-26, 02:41:04,VALID,916.908,VALID,0,VALID,96.7259,VALID,0,VALID,20.2519,VALID,118,VALID,0,
2012-08-26, 02:42:04,VALID,916.912,VALID,0,VALID,96.7107,VALID,0,VALID,20.2504,VALID,121,VALID,0,
2012-08-26, 02:43:04,VALID,916.872,VALID,0,VALID,96.6878,VALID,0,VALID,20.2699,VALID,114,VALID,0,
2012-08-26, 02:44:04,VALID,916.908,VALID,0,VALID,96.6268,VALID,0,VALID,20.2894,VALID,114,VALID,0,
2012-08-26, 02:45:04,VALID,916.923,VALID,0,VALID,96.6039,VALID,0,VALID,20.3284,VALID,114,VALID,0,
2012-08-26, 02:46:04,VALID,916.912,VALID,0,VALID,96.5506,VALID,0,VALID,20.3495,VALID,114,VALID,0,
2012-08-26, 02:47:04,VALID,916.886,VALID,0,VALID,96.5201,VALID,0,VALID,20.3479,VALID,114,VALID,0,
2012-08-26, 02:48:04,VALID,916.877,VALID,0,VALID,96.4591,VALID,0,VALID,20.3885,VALID,114,VALID,0,
2012-08-26, 02:49:04,VALID,916.871,VALID,0,VALID,96.4057,VALID,0,VALID,20.3869,VALID,114,VALID,0,
2012-08-26, 02:50:04,VALID,916.84,VALID,0,VALID,96.3829,VALID,0,VALID,20.4064,VALID,114,VALID,0,
2012-08-26, 02:51:04,VALID,916.838,VALID,0,VALID,96.3524,VALID,0,VALID,20.4064,VALID,114,VALID,0,
2012-08-26, 02:52:04,VALID,916.895,VALID,0,VALID,96.299,VALID,0,VALID,20.4259,VALID,114,VALID,0,
2012-08-26, 02:53:04,VALID,916.871,VALID,0,VALID,96.238,VALID,0,VALID,20.447,VALID,114,VALID,0,
2012-08-26, 02:54:04,VALID,916.884,VALID,0,VALID,96.1694,VALID,0,VALID,20.4259,VALID,114,VALID,0,
2012-08-26, 02:55:04,VALID,916.873,VALID,0,VALID,96.1389,VALID,0,VALID,20.447,VALID,114,VALID,0,
2012-08-26, 02:56:04,VALID,916.863,VALID,0,VALID,96.0703,VALID,0,VALID,20.4275,VALID,114,VALID,0,
2012-08-26, 02:57:04,VALID,916.858,VALID,0,VALID,96.0322,VALID,0,VALID,20.4064,VALID,114,VALID,0,
2012-08-26, 02:58:04,VALID,916.824,VALID,0,VALID,96.0017,VALID,0.107441,VALID,20.3869,VALID,114,VALID,0,
2012-08-26, 02:59:04,VALID,916.846,VALID,0,VALID,95.9788,VALID,0,VALID,20.3674,VALID,114,VALID,0,
2012-08-26, 03:00:04,VALID,916.833,VALID,0,VALID,95.9864,VALID,0,VALID,20.3479,VALID,114,VALID,0,
2012-08-26, 03:01:04,VALID,916.82,VALID,0,VALID,95.9636,VALID,0,VALID,20.3674,VALID,114,VALID,0,
2012-08-26, 03:02:04,VALID,916.797,VALID,0,VALID,95.9407,VALID,0,VALID,20.3674,VALID,114,VALID,0,
2012-08-26, 03:03:04,VALID,916.821,VALID,0,VALID,95.8873,VALID,0,VALID,20.3479,VALID,114,VALID,0,
2012-08-26, 03:04:04,VALID,916.831,VALID,0,VALID,95.895,VALID,0,VALID,20.3479,VALID,114,VALID,0,
2012-08-26, 03:05:04,VALID,916.801,VALID,0,VALID,95.9026,VALID,0,VALID,20.3479,VALID,114,VALID,0,
2012-08-26, 03:06:04,VALID,916.776,VALID,0,VALID,95.9178,VALID,0,VALID,20.3479,VALID,114,VALID,0,
2012-08-26, 03:07:04,VALID,916.819,VALID,0,VALID,95.9636,VALID,0,VALID,20.3479,VALID,114,VALID,0,
2012-08-26, 03:08:04,VALID,916.819,VALID,0,VALID,96.0093,VALID,0,VALID,20.3479,VALID,114,VALID,0,
2012-08-26, 03:09:04,VALID,916.812,VALID,0,VALID,95.9941,VALID,0,VALID,20.369,VALID,114,VALID,0,
2012-08-26, 03:10:04,VALID,916.824,VALID,0,VALID,95.9712,VALID,0,VALID,20.3885,VALID,114,VALID,0,
2012-08-26, 03:11:04,VALID,916.777,VALID,0,VALID,95.9788,VALID,0,VALID,20.3674,VALID,114,VALID,0,
2012-08-26, 03:12:04,VALID,916.764,VALID,0,VALID,95.9407,VALID,0,VALID,20.3674,VALID,114,VALID,0,
2012-08-26, 03:13:04,VALID,916.76,VALID,0,VALID,95.7882,VALID,0,VALID,20.3089,VALID,114,VALID,0,
2012-08-26, 03:14:04,VALID,916.803,VALID,0,VALID,95.6586,VALID,0,VALID,20.2519,VALID,114,VALID,0,
2012-08-26, 03:15:04,VALID,916.773,VALID,0,VALID,95.5595,VALID,0,VALID,20.1739,VALID,114,VALID,0,
2012-08-26, 03:16:04,VALID,916.797,VALID,0,VALID,95.5443,VALID,0,VALID,20.0944,VALID,114,VALID,0,
2012-08-26, 03:17:04,VALID,916.795,VALID,0,VALID,95.59,VALID,0,VALID,20.0749,VALID,114,VALID,0,
2012-08-26, 03:18:04,VALID,916.799,VALID,0,VALID,95.5976,VALID,0,VALID,20.0553,VALID,114,VALID,0,
2012-08-26, 03:19:04,VALID,916.779,VALID,0,VALID,95.6434,VALID,0,VALID,20.0749,VALID,114,VALID,0,
2012-08-26, 03:20:04,VALID,916.803,VALID,0,VALID,95.6357,VALID,0,VALID,20.0358,VALID,114,VALID,0,
2012-08-26, 03:21:04,VALID,916.802,VALID,0,VALID,95.6205,VALID,0,VALID,20.0163,VALID,114,VALID,0,
2012-08-26, 03:22:04,VALID,916.815,VALID,0,VALID,95.7425,VALID,0,VALID,19.9968,VALID,114,VALID,0,
2012-08-26, 03:23:04,VALID,916.801,VALID,0,VALID,95.8035,VALID,0,VALID,20.0163,VALID,114,VALID,0,
2012-08-26, 03:24:04,VALID,916.841,VALID,0,VALID,95.8111,VALID,0,VALID,19.9968,VALID,114,VALID,0,
2012-08-26, 03:25:04,VALID,916.84,VALID,0,VALID,95.8035,VALID,0,VALID,19.9773,VALID,114,VALID,0,
2012-08-26, 03:26:04,VALID,916.818,VALID,0,VALID,95.8035,VALID,0,VALID,19.9593,VALID,114,VALID,0,
2012-08-26, 03:27:04,VALID,916.789,VALID,0,VALID,95.8568,VALID,0,VALID,19.9188,VALID,114,VALID,0,
2012-08-26, 03:28:04,VALID,916.815,VALID,0,VALID,95.8187,VALID,0,VALID,19.8993,VALID,114,VALID,0,
2012-08-26, 03:29:04,VALID,916.813,VALID,0,VALID,95.9026,VALID,0,VALID,19.9203,VALID,114,VALID,0,
2012-08-26, 03:30:04,VALID,916.81,VALID,0,VALID,95.895,VALID,0,VALID,19.9008,VALID,114,VALID,0,
2012-08-26, 03:31:04,VALID,916.814,VALID,0,VALID,95.8645,VALID,0,VALID,19.8813,VALID,114,VALID,0,
2012-08-26, 03:32:04,VALID,916.784,VALID,0,VALID,95.7501,VALID,0,VALID,19.8228,VALID,114,VALID,0,
2012-08-26, 03:33:04,VALID,916.769,VALID,0,VALID,95.6662,VALID,0,VALID,19.7448,VALID,114,VALID,0,
2012-08-26, 03:34:04,VALID,916.766,VALID,0,VALID,95.8035,VALID,0,VALID,19.7058,VALID,114,VALID,0,
2012-08-26, 03:35:04,VALID,916.757,VALID,0,VALID,95.9483,VALID,0,VALID,19.7043,VALID,114,VALID,0,
2012-08-26, 03:36:04,VALID,916.766,VALID,0,VALID,95.9788,VALID,0,VALID,19.6848,VALID,114,VALID,0,
2012-08-26, 03:37:04,VALID,916.778,VALID,0,VALID,95.8187,VALID,0,VALID,19.6278,VALID,114,VALID,0,
2012-08-26, 03:38:04,VALID,916.799,VALID,0,VALID,95.773,VALID,0,VALID,19.5498,VALID,114,VALID,0,
2012-08-26, 03:39:04,VALID,916.795,VALID,0,VALID,95.651,VALID,0,VALID,19.4327,VALID,114,VALID,0,
2012-08-26, 03:40:04,VALID,916.784,VALID,0,VALID,95.5824,VALID,0,VALID,19.3143,VALID,114,VALID,0,
2012-08-26, 03:41:04,VALID,916.821,VALID,0,VALID,95.7044,VALID,0,VALID,19.2767,VALID,114,VALID,0,
2012-08-26, 03:42:04,VALID,916.848,VALID,0,VALID,95.7425,VALID,0,VALID,19.2377,VALID,114,VALID,0,
2012-08-26, 03:43:04,VALID,916.86,VALID,0,VALID,96.1694,VALID,0,VALID,19.2572,VALID,114,VALID,0,
2012-08-26, 03:44:04,VALID,916.858,VALID,0,VALID,96.4896,VALID,0,VALID,19.3742,VALID,114,VALID,0,
2012-08-26, 03:45:04,VALID,916.879,VALID,0,VALID,96.4438,VALID,0,VALID,19.3937,VALID,115,VALID,0,
2012-08-26, 03:46:04,VALID,916.845,VALID,0,VALID,96.5963,VALID,0,VALID,19.4132,VALID,84,VALID,0,
2012-08-26, 03:47:04,VALID,916.838,VALID,0,VALID,96.7259,VALID,0,VALID,19.4718,VALID,84,VALID,0,
2012-08-26, 03:48:04,VALID,916.83,VALID,0,VALID,96.642,VALID,0,VALID,19.4523,VALID,84,VALID,0,
2012-08-26, 03:49:04,VALID,916.796,VALID,0,VALID,96.6802,VALID,0,VALID,19.4327,VALID,84,VALID,0,
2012-08-26, 03:50:04,VALID,916.788,VALID,0,VALID,96.6725,VALID,0,VALID,19.4132,VALID,84,VALID,0,
2012-08-26, 03:51:04,VALID,916.803,VALID,0,VALID,96.764,VALID,0,VALID,19.3937,VALID,84,VALID,0,
2012-08-26, 03:52:04,VALID,916.77,VALID,0,VALID,96.8021,VALID,0,VALID,19.4132,VALID,84,VALID,0,
2012-08-26, 03:53:04,VALID,916.741,VALID,0,VALID,96.8479,VALID,0,VALID,19.4327,VALID,84,VALID,0,
2012-08-26, 03:54:04,VALID,916.773,VALID,0,VALID,96.886,VALID,0,VALID,19.4523,VALID,84,VALID,0,
2012-08-26, 03:55:04,VALID,916.733,VALID,0,VALID,96.8936,VALID,0,VALID,19.4913,VALID,84,VALID,0,
2012-08-26, 03:56:04,VALID,916.729,VALID,0,VALID,96.9089,VALID,0,VALID,19.4718,VALID,84,VALID,0,
2012-08-26, 03:57:04,VALID,916.705,VALID,0,VALID,96.8936,VALID,0,VALID,19.4132,VALID,84,VALID,0,
2012-08-26, 03:58:04,VALID,916.711,VALID,0,VALID,96.8784,VALID,0,VALID,19.3352,VALID,84,VALID,0,
2012-08-26, 03:59:04,VALID,916.725,VALID,0,VALID,96.8021,VALID,0,VALID,19.2962,VALID,84,VALID,0,
2012-08-26, 04:00:04,VALID,916.695,VALID,0,VALID,96.8479,VALID,0,VALID,19.2377,VALID,84,VALID,0,